Tracking 29892 objects as of 21-Nov-2024
HD Live streaming from Space Station
objects crossing your sky now

COSMOS 252 DEB *

Track COSMOS 252 DEB * now!
10-day predictions


NORAD ID: 18648
Int'l Code: 1968-097ED
Perigee: 716.2 km
Apogee: 1,564.8 km
Inclination: 62.2 °
Period: 108.0 minutes
Semi major axis: 7511 km
RCS: 0.0055 m2 (small)
Launch date: November 1, 1968
Source: Commonwealth of Independent States (former USSR) (CIS)
Launch site: TYURATAM MISSILE AND SPACE COMPLEX (TTMTR)

Note: This is SATELLITE DEBRIS
Your satellite tracking list
Your tracking list is empty




NASA's NSSDC Master Catalog

Two Line Element Set (TLE):
1 18648U 68097ED  24322.44637739  .00002931  00000-0  24742-2 0  9999
2 18648  62.2157 338.8782 0564852 210.0295 146.7184 13.33555732578503
Source of the keplerian elements: AFSPC